Flag for Germany Weather past 2 weeks in Paderborn, North Rhine-Westphalia, Germany

Now
43 °F

Scattered clouds.


Feels Like: 43 °F
Forecast: 36 / 50 °F
Wind: 1 mph from West

Location: Paderborn / Lippstadt

Current Time: Apr 27, 2015 at 8:46:25 PM

Latest Report: Apr 27, 2015 at 8:20 PM


Visibility: N/A

Pressure: 29.77 "Hg

Humidity: 93%

Dew point: 41 °F

Location of PaderbornLocation

Historic Weather in Paderborn — Graph

°F

Paderborn temperature yesterday

Maximum temperature yesterday: 59 °F (at 12:50 PM)
Minimum temperature yesterday: 50 °F (at 12:50 AM)
Average temperature yesterday: 53 °F

Past Weeks' High & Low Weather Summary

 TemperatureHumidityPressure
High70 °F (Apr 15, 2:20 PM)100% (Apr 26, 10:50 PM)30.45 "Hg (Apr 26, 10:50 PM)
Low28 °F (Apr 19, 6:50 AM)21% (Apr 21, 4:50 PM)29.59 "Hg (Apr 27, 4:20 AM)
Average49 °F64%30.10 "Hg
* Reported Apr 12 7:20 PM — Apr 27 7:20 PM, Paderborn, Weather by CustomWeather, © 2015

Note: Actual official high and low records may vary slightly from our data, if they occured in-between our weather recording intervals... More about our weather records

Advertising

Paderborn weather history for previous 24 hours

 ConditionsComfort  
Time TempWeatherWind HumidityBarometerVisibility
7:20 PM
Mon, Apr 27
45 °FBroken clouds.1 mph81%29.77 "HgN/A
6:50 PM43 °FBroken clouds.1 mph87%29.77 "HgN/A
6:20 PM43 °FDrizzle. Partly sunny.2 mph87%29.77 "HgN/A
5:50 PM43 °FPartly sunny.1 mph87%29.77 "HgN/A
5:20 PM43 °FPartly sunny.3 mph87%29.77 "HgN/A
4:50 PM43 °FLight rain. Broken clouds.5 mph87%29.77 "HgN/A
4:20 PM43 °FLight rain. Broken clouds.5 mph93%29.77 "HgN/A
3:50 PM43 °FRain. Partly sunny.5 mph93%29.77 "HgN/A
3:20 PM43 °FRain. Fog.5 mph93%29.77 "Hg1 mi
2:50 PM41 °FRain. Fog.6 mph100%29.74 "Hg1 mi
2:20 PM41 °FDrizzle. Fog.6 mph100%29.74 "Hg2 mi
1:50 PM41 °FDrizzle. Partly sunny.7 mph100%29.74 "Hg4 mi
1:20 PM41 °FPartly sunny.6 mph100%29.74 "Hg4 mi
12:50 PM41 °FMostly cloudy.7 mph100%29.74 "Hg2 mi
12:20 PM41 °FMostly cloudy.8 mph100%29.71 "Hg1 mi
11:50 AM41 °FLight rain. Fog.6 mph100%29.71 "Hg0 mi
11:20 AM43 °FFog.7 mph100%29.71 "Hg1 mi
10:50 AM43 °FFog.7 mph100%29.68 "Hg1 mi
10:20 AM43 °FFog.7 mph100%29.68 "Hg1 mi
9:50 AM45 °FFog.5 mph93%29.68 "Hg1 mi
9:20 AM45 °FLight rain. Fog.6 mph93%29.65 "Hg1 mi
8:50 AM45 °FLight rain. Fog.6 mph100%29.65 "Hg1 mi
8:20 AM45 °FLight rain. Partly sunny.6 mph100%29.65 "Hg4 mi
7:50 AM45 °FRain. Partly sunny.6 mph100%29.62 "Hg3 mi
7:20 AM46 °FLight rain. Fog.5 mph93%29.62 "Hg1 mi
6:50 AM46 °FFog.6 mph100%29.59 "Hg1 mi
6:20 AM48 °FFog.5 mph100%29.59 "Hg0 mi
5:50 AM48 °FFog.5 mph100%29.59 "Hg0 mi
5:20 AM50 °FFog.2 mph94%29.59 "Hg0 mi
4:50 AM48 °FRain. Fog.1 mph100%29.59 "Hg3 mi
4:20 AM50 °FRain. Fog.1 mph94%29.59 "Hg3 mi
3:50 AM48 °FRain. Fog.1 mph100%29.62 "Hg3 mi
3:20 AM48 °FRain. Fog.2 mph100%29.62 "Hg3 mi
2:50 AM48 °FRain. Fog.3 mph100%29.62 "Hg3 mi
2:20 AM50 °FRain. Fog.2 mph94%29.62 "Hg3 mi
1:50 AM48 °FRain. Fog.2 mph100%29.65 "Hg3 mi
1:20 AM50 °FLight rain. Passing clouds.1 mph94%29.65 "HgN/A
12:50 AM50 °FLight rain. Passing clouds.1 mph94%29.65 "HgN/A
12:20 AM50 °FPartly cloudy.2 mph94%29.65 "HgN/A
11:50 PM
Sun, Apr 26
50 °FPartly cloudy.2 mph94%29.65 "HgN/A
11:20 PM50 °FPartly cloudy.3 mph94%29.68 "HgN/A
10:50 PM50 °FPartly cloudy.3 mph100%29.68 "HgN/A
10:20 PM52 °FPartly cloudy.2 mph94%29.68 "HgN/A
9:50 PM52 °FClear.5 mph94%29.68 "Hg10 mi
9:20 PM52 °FSunny.6 mph94%29.68 "Hg10 mi
8:50 PM52 °FSunny.1 mph94%29.68 "Hg10 mi
8:20 PM54 °FSunny.2 mph88%29.68 "Hg10 mi
Weather by CustomWeather, © 2015

See weather overviewHow to use our weather pages